Terminal Aerodrome Forecast
Issued by NWS Twin Cities, MN

Home | Current Version | Previous Version | Graphics & Text | Print | Product List | Glossary On
Versions: 1 2 3 4 5 6 7 8 9 10 11 12 13 14 15 16 17 18 19
464
FTUS43 KMPX 220540
TAFEAU
TAF
KEAU 220540Z 2206/2306 VRB03KT P6SM SCT250
     FM221200 VRB03KT P6SM BKN100
     FM222000 26006KT P6SM BKN100
     FM230300 31009KT P6SM OVC020=

USA.gov is the U.S. government's official web portal to all federal, state and local government web resources and services.